Location: Newark
(45.7667°N, 11.5167°E)
Time: 13:37:08
(UTC+00:00)

Envisat - Pass Details

Date: 28 January 2020
Orbit: 764 x 766 km, 98.1° (Epoch: 24 February)

Event Time Altitude Azimuth Distance (km) Brightness Sun altitude
Rises 17:16:02 0° 175° (S) 3,219 6.4 -11.1°
Reaches altitude 10° 17:18:21 10° 179° (S) 2,297 5.6 -11.5°
Maximum altitude 17:23:21 60° 259° (W) 875 3.6 -12.3°
Drops below altitude 10° 17:28:24 10° 340° (NNW) 2,314 5.6 -13.2°
Sets 17:30:45 0° 344° (NNW) 3,244 6.3 -13.6°
